Tracking 19281 objects as of 16-Nov-2018
HD Live streaming from Space Station
objects crossing your sky now

COSMOS 1800

Track COSMOS 1800 now!
10-day predictions
COSMOS 1800 is classified as:


NORAD ID: 17144
Int'l Code: 1986-092G
Perigee: 1,405.2 km
Apogee: 1,479.8 km
Inclination: 74.0 °
Period: 114.6 minutes
Semi major axis: 7813 km
RCS: 0.7179 m2 (medium)
Launch date: November 21, 1986
Source: Commonwealth of Independent States (former USSR) (CIS)
Launch site: PLESETSK MISSILE AND SPACE COMPLEX (PKMTR)
aabbcc
Your satellite tracking list
Your tracking list is empty




NASA's NSSDC Master Catalog

Two Line Element Set (TLE):
1 17144U 86092G   18319.26402545 -.00000021 +00000-0 -27959-4 0  9993
2 17144 074.0135 196.9237 0047720 342.6889 138.3040 12.56997519467602
Source of the keplerian elements: AFSPC